Weather History for Mobridge, SD

Change the Weather History Date:

Wednesday, June 19, 2013

  Actual Average Record
Temperature  
Mean Temperature 75 °F 67 °F  
Max Temperature 87 °F 79 °F 103 °F (1933)
Min Temperature 63 °F 55 °F 39 °F (1948)
Degree Days  
Heating Degree Days 0 2  
Month to date heating degree days 68 62  
Since 1 June heating degree days 68 62  
Since 1 July heating degree days 8248 7946  
Cooling Degree Days 10 4  
Month to date cooling degree days 34 43  
Year to date cooling degree days 49 59  
Since 1 June cooling degree days 34 43  
Growing Degree Days 24 (Base 50)    
Moisture  
Dew Point 60 °F    
Average Humidity 60    
Maximum Humidity 78    
Minimum Humidity 42    
Precipitation  
Precipitation 0.00 in 0.11 in 1.09 in (1951)
Month to date precipitation 1.11 2.27  
Year to date precipitation 8.79 8.29  
Sea Level Pressure  
Sea Level Pressure 29.78 in    
Wind  
Wind Speed 14 mph (SE)    
Max Wind Speed 26 mph    
Max Gust Speed 32 mph    
Visibility 10 miles    
Events      
T = Trace of Precipitation, MM = Missing Value Source: NWS Daily Summary

Daily Weather History Graph

Daily Weather History Graph

Search for Another Location

Airport:

Trip Planner

Search our weather history database for the weather conditions in past years. The results will help you decide how hot, cold, wet, or windy it might be!

Date:

Astronomy

Jun. 19, 2013 Rise Set
Actual Time 5:52 AM CDT 9:33 PM CDT
Civil Twilight 5:14 AM CDT 10:11 PM CDT
Nautical Twilight 4:23 AM CDT 11:02 PM CDT
Astronomical Twilight 3:13 AM CDT 12:12 AM CDT
Moon 5:20 PM CDT (6/19) 2:48 AM CDT (6/19)
Length of Visible Light 16h 57m
Length of Day
15h 41m
Waxing Gibbous, 80% of the Moon is Illuminated
Jun 19
Waxing Gibbous
Jun 23
Full
Jun 29
Last Quarter
Jul 8
New
Jul 15
First Quarter

Hourly Weather History & Observations

Time (CDT) Temp. Heat Index Dew Point Humidity Pressure Visibility Wind Dir Wind Speed Gust Speed Precip Events Conditions
12:52 AM 64.0 °F - 55.9 °F 75% 29.88 in 10.0 mi ESE 6.9 mph - N/A   Clear
1:52 AM 63.0 °F - 55.9 °F 78% 29.87 in 10.0 mi SE 9.2 mph - N/A   Clear
2:52 AM 64.9 °F - 54.0 °F 68% 29.87 in 10.0 mi SE 11.5 mph - N/A   Clear
3:52 AM 64.0 °F - 54.0 °F 70% 29.87 in 10.0 mi SE 9.2 mph - N/A   Clear
4:52 AM 64.9 °F - 55.9 °F 73% 29.85 in 10.0 mi SE 9.2 mph - N/A   Clear
5:52 AM 64.0 °F - 55.9 °F 75% 29.85 in 10.0 mi SE 8.1 mph - N/A   Clear
6:52 AM 64.9 °F - 55.9 °F 73% 29.84 in 10.0 mi SE 10.4 mph - N/A   Clear
7:52 AM 68.0 °F - 57.9 °F 70% 29.82 in 10.0 mi SE 12.7 mph - N/A   Clear
8:52 AM 70.0 °F - 57.9 °F 65% 29.82 in 10.0 mi SSE 12.7 mph - N/A   Clear
9:52 AM 72.0 °F - 60.1 °F 66% 29.83 in 10.0 mi South 10.4 mph - N/A   Clear
10:52 AM 81.0 °F 81.9 °F 62.1 °F 52% 29.81 in 10.0 mi South 16.1 mph 21.9 mph N/A   Clear
11:52 AM 79.0 °F - 62.1 °F 56% 29.82 in 10.0 mi South 17.3 mph 23.0 mph N/A   Clear
12:52 PM 78.1 °F - 61.0 °F 56% 29.81 in 10.0 mi South 15.0 mph - N/A   Clear
1:52 PM 73.9 °F - 62.1 °F 66% 29.80 in 10.0 mi SE 10.4 mph - N/A   Scattered Clouds
2:52 PM 78.1 °F - 61.0 °F 56% 29.78 in 10.0 mi SE 13.8 mph - N/A   Clear
3:52 PM 84.0 °F 84.0 °F 60.1 °F 44% 29.75 in 10.0 mi SE 19.6 mph 31.1 mph N/A   Clear
4:52 PM 84.9 °F 84.8 °F 60.1 °F 43% 29.73 in 10.0 mi SE 24.2 mph 32.2 mph N/A   Clear
5:52 PM 86.0 °F 85.7 °F 60.1 °F 41% 29.71 in 10.0 mi SE 23.0 mph 29.9 mph N/A   Clear
6:52 PM 84.0 °F 84.5 °F 62.1 °F 47% 29.71 in 10.0 mi SE 18.4 mph 26.5 mph N/A   Partly Cloudy
7:52 PM 82.0 °F 83.1 °F 63.0 °F 52% 29.69 in 10.0 mi SE 17.3 mph - N/A   Clear
8:52 PM 80.1 °F 81.5 °F 63.0 °F 56% 29.68 in 10.0 mi ESE 15.0 mph - N/A   Clear
9:52 PM 75.9 °F - 64.0 °F 67% 29.68 in 10.0 mi East 17.3 mph - N/A   Partly Cloudy
10:52 PM 75.0 °F - 64.0 °F 69% 29.69 in 10.0 mi ESE 15.0 mph - N/A   Clear
11:52 PM 75.0 °F - 63.0 °F 66% 29.68 in 10.0 mi SE 13.8 mph - N/A   Clear